Probability
0 0 0 0 0 0 0 0 0 0 0 0 0 0 0 0 0 0 0 0 0 0 0 1 3 5 6 5 3 3 3 3 3 3 1 0 0 0 0 0 0 0 0 0 1 2 2 2 2
0 0 0 0 0 0 0 0 0 0 0 0 0 0 0 0 0 0 0 0 0 0 0 1 2 3 4 3 3 3 3 3 3 3 2 1 0 0 0 0 0 0 0 0 0 1 1 1 1
0 0 0 0 0 0 0 0 0 0 0 0 0 0 0 0 0 0 0 0 0 0 0 0 1 1 1 1 2 3 3 3 3 3 3 2 1 0 0 0 0 0 0 0 0 0 0 0 0
0 0 0 0 0 0 0 0 0 0 0 0 0 0 0 0 0 0 0 0 0 0 0 0 0 0 0 0 1 3 3 3 3 3 3 3 1 0 0 0 0 0 0 0 0 0 0 0 0
0 0 0 0 0 0 0 0 0 0 0 0 0 0 0 0 0 0 0 0 0 0 0 0 0 0 0 0 1 2 3 3 3 3 3 3 2 1 1 1 1 0 0 0 0 0 0 0 0
0 0 0 0 0 0 0 0 0 0 0 0 0 0 0 0 0 0 0 0 0 0 0 0 0 0 0 0 0 1 2 3 3 2 3 3 3 3 3 2 1 0 0 0 0 0 0 0 0
0 0 0 0 0 0 0 0 0 0 0 0 0 0 0 0 0 0 0 0 0 0 0 0 0 0 0 0 0 0 1 2 1 1 1 2 3 3 3 3 2 1 0 0 0 0 0 0 0
0 0 0 0 0 0 0 0 0 0 0 0 0 0 0 0 0 0 0 0 0 0 0 0 0 0 0 0 0 0 1 1 1 0 0 1 2 3 3 3 3 1 0 0 0 0 0 0 0
0 0 0 0 0 0 0 0 0 0 0 0 0 0 0 0 0 0 0 0 0 0 0 0 0 0 0 0 0 0 0 0 0 0 0 0 1 2 3 3 3 2 1 1 0 0 0 0 0
0 0 0 0 0 0 0 0 0 0 0 0 0 0 0 0 0 0 0 0 0 0 0 0 0 0 0 0 0 0 0 0 0 0 0 0 0 1 2 3 3 3 2 1 1 1 0 0 0
1 1 0 0 0 0 0 0 0 0 0 0 0 0 0 0 0 0 0 0 0 0 0 0 0 0 0 0 0 0 0 0 0 0 0 0 0 0 1 2 2 2 1 1 0 0 0 0 0
2 2 1 0 0 0 0 0 0 0 0 0 0 0 0 0 0 0 0 0 0 0 0 0 0 0 0 0 0 0 0 0 0 0 0 0 0 0 0 1 1 1 0 0 0 0 0 0 0
2 2 1 0 0 0 0 0 0 0 0 0 0 0 0 0 0 0 0 0 0 0 0 0 0 0 0 0 0 0 0 0 0 0 0 0 0 0 0 0 0 0 0 0 0 0 0 0 0
1 1 1 0 0 0 0 0 0 0 0 0 0 0 0 0 0 0 0 0 0 0 0 0 0 0 0 0 0 0 0 0 0 0 0 0 0 0 0 0 0 0 0 0 0 0 0 0 0
0 0 0 0 0 0 0 0 0 0 0 0 0 0 0 0 0 0 0 0 0 0 0 0 0 0 0 0 0 0 0 0 0 0 0 0 0 0 0 0 0 0 0 0 0 0 0 0 0
0 0 0 0 0 0 0 0 0 0 0 0 0 0 0 0 0 0 0 0 0 0 0 0 0 0 0 0 0 0 0 0 0 0 0 0 0 0 0 0 0 0 0 0 0 0 0 0 0
0 0 0 0 0 0 0 0 0 0 0 0 0 0 0 0 0 0 0 0 0 0 0 0 0 0 0 0 0 0 0 0 0 0 0 0 0 0 0 0 0 0 0 0 0 0 0 0 0
0 0 0 0 0 0 0 0 0 0 0 0 0 0 0 0 0 0 0 0 0 0 0 0 0 0 0 0 0 0 0 0 0 0 0 0 0 0 0 0 0 0 0 0 0 0 0 0 0
0 0 0 0 0 0 0 0 0 0 0 0 0 0 0 0 0 0 0 0 0 0 0 0 0 0 0 0 0 0 0 0 0 0 0 0 0 0 0 0 0 0 0 0 0 0 0 0 0
0 0 0 0 0 0 0 0 0 0 0 0 0 0 0 0 0 0 0 0 0 0 0 0 0 0 0 0 0 0 0 0 0 0 0 0 0 0 0 0 0 0 0 0 0 0 0 0 0
0 0 0 0 0 0 0 0 0 0 0 0 0 0 0 0 0 0 0 0 0 0 0 0 0 0 0 0 0 0 0 0 0 0 0 0 0 0 0 0 0 0 0 0 0 0 0 0 0
0 0 0 0 0 0 0 0 0 0 0 0 0 0 0 0 0 0 0 0 0 0 0 0 0 0 0 0 0 0 0 0 0 0 0 0 0 0 0 0 0 0 0 0 0 0 0 0 0
0 0 0 0 0 0 0 0 0 0 0 0 0 0 0 0 0 0 0 0 0 0 0 0 0 0 0 0 0 0 0 0 0 0 0 0 0 0 0 0 0 0 0 0 0 0 0 0 0
0 0 0 0 0 0 0 0 0 0 0 0 0 0 0 0 0 1 1 1 0 0 0 0 0 0 0 0 0 0 0 0 0 0 0 0 0 0 0 0 0 0 0 0 0 0 0 0 0
0 0 0 0 0 0 0 0 0 0 0 0 0 0 0 0 0 1 1 1 0 0 0 0 0 0 0 0 0 0 0 0 0 0 0 0 0 0 0 0 0 0 0 0 0 0 0 0 0
0 0 0 0 0 0 0 0 0 0 0 0 0 0 0 0 0 0 0 0 0 0 0 0 0 0 0 0 0 0 0 0 0 0 0 0 0 0 0 0 0 0 0 0 0 0 0 0 0
0 0 0 0 0 0 0 0 0 0 0 0 0 0 0 0 0 0 0 0 0 0 0 0 0 0 0 0 0 0 0 0 0 0 0 0 0 0 0 0 0 0 0 0 0 0 0 0 0
0 0 0 0 0 0 0 0 0 0 0 0 0 0 0 0 0 0 0 0 0 0 0 0 0 0 0 0 0 0 0 0 0 0 0 0 0 0 0 0 0 0 0 0 0 0 0 0 0
0 0 0 0 0 0 0 0 0 0 0 0 0 0 0 0 0 0 0 0 0 0 0 0 0 0 0 0 0 0 0 0 0 0 0 0 0 0 0 0 0 0 0 0 0 0 0 0 0
0 0 0 0 0 0 0 0 0 0 0 0 0 0 0 0 0 0 0 1 1 1 0 0 0 0 0 0 0 0 0 0 0 0 0 0 0 0 0 0 0 0 0 0 0 0 0 0 0
Wind_Speed
2 3 3 3 4 4 1 1 0 1 2 2 4 6 6 4 2 2 1 3 5 5 4 6 10 10 10 10 10 10 10 11 11 11 11 11 11 11 10 10 10 9 9 9 9 9 9 8 9
2 2 3 4 4 2 1 1 1 1 4 4 5 5 6 5 3 4 2 3 5 5 4 6 10 10 9 9 9 10 10 10 10 10 10 10 10 10 10 9 9 9 9 9 8 8 8 8 8
2 2 3 3 3 2 1 0 3 4 4 3 4 5 4 3 2 2 2 5 5 5 4 6 10 10 10 9 9 10 10 10 10 10 9 10 10 9 9 9 9 9 9 9 8 8 8 8 8
3 3 4 3 2 1 1 2 3 4 4 5 5 5 4 3 1 3 5 6 6 4 4 6 10 10 10 10 9 9 10 9 9 9 9 9 9 9 9 8 8 8 8 8 8 8 8 7 8
4 4 4 2 1 0 0 1 2 3 3 4 4 5 3 4 5 7 5 5 6 4 4 5 9 9 9 9 9 9 9 9 9 9 9 8 8 8 8 8 8 7 8 8 8 7 7 7 7
4 4 3 1 1 1 1 1 3 5 4 4 5 4 3 3 5 5 5 5 4 4 3 4 7 9 9 9 8 8 8 8 8 8 8 7 7 7 7 7 7 7 7 7 7 7 7 7 7
4 3 2 2 1 1 1 2 3 5 5 3 3 5 3 2 3 5 5 5 4 4 4 3 3 4 7 7 7 7 7 7 7 7 7 6 6 6 6 6 6 7 7 6 6 7 7 7 7
4 4 2 1 2 1 1 3 3 4 4 3 2 5 4 3 4 5 6 5 5 4 4 4 4 4 3 3 6 6 6 6 5 5 6 6 5 5 6 5 5 6 6 6 6 7 7 7 7
4 5 1 1 3 1 1 3 3 4 5 4 3 3 5 8 8 7 6 4 4 4 3 3 3 3 3 2 4 4 5 5 5 4 5 5 3 4 3 4 4 5 5 6 6 6 7 7 7
4 3 1 0 2 3 3 3 4 4 5 4 5 6 9 9 8 7 5 4 3 2 2 2 2 3 3 2 3 2 3 3 3 3 3 2 2 2 3 5 6 6 6 7 7 8 7 6 4
3 2 1 2 2 3 4 3 3 6 3 3 7 10 10 8 7 6 4 3 2 1 1 1 2 2 2 2 2 2 2 2 2 3 2 2 2 2 3 2 3 4 5 4 5 5 3 3 3
3 2 2 2 3 3 3 3 4 3 1 3 8 11 10 9 7 5 5 3 2 2 1 1 2 2 2 2 2 2 1 1 1 2 2 2 2 2 2 2 2 2 2 2 3 2 3 4 3
3 2 3 4 5 5 6 5 3 2 4 8 9 8 8 8 6 4 4 3 3 2 1 1 2 2 2 2 1 2 1 1 1 2 2 2 2 2 1 1 2 2 2 2 2 2 3 3 3
2 3 3 4 4 3 5 3 3 2 6 8 8 7 6 6 6 5 4 4 3 3 2 1 2 2 2 2 2 1 1 1 2 2 2 3 2 2 2 2 2 2 2 2 2 3 3 3 3
3 4 4 3 2 2 4 4 1 2 6 7 6 5 5 4 4 5 5 5 4 4 3 2 2 2 3 3 2 2 1 1 2 1 2 2 2 2 2 2 2 2 2 3 3 4 3 3 3
3 3 1 2 1 2 4 1 1 3 6 5 5 4 4 4 4 3 4 4 4 4 3 3 3 3 3 3 2 2 2 2 1 2 2 2 2 3 2 2 2 2 2 2 3 3 3 3 3
3 2 1 1 0 2 3 2 2 3 5 5 4 4 4 3 3 3 4 5 5 5 4 3 3 3 3 3 3 3 2 2 1 1 2 2 3 3 3 2 2 2 3 3 3 3 3 3 3
3 3 2 2 1 3 2 2 2 3 5 5 5 4 4 4 5 4 4 4 4 4 4 4 4 3 4 3 3 3 3 2 2 2 2 2 2 3 3 3 3 3 3 3 3 3 3 3 2
4 4 2 2 1 2 3 3 4 4 4 5 5 5 6 6 4 3 4 4 4 4 4 4 4 3 3 2 2 2 1 1 2 2 2 3 3 3 3 3 3 3 3 3 3 3 4 3 2
3 3 2 1 0 2 2 3 4 5 6 7 7 7 7 6 3 3 4 4 5 5 5 4 4 4 3 3 2 2 2 1 1 1 2 3 3 3 3 3 3 3 3 3 3 3 2 2 2
2 4 4 3 1 2 1 2 3 4 4 5 5 6 6 8 7 5 5 5 5 5 6 5 5 4 3 4 3 3 3 3 2 2 2 2 2 3 3 3 3 3 3 2 2 2 3 2 2
3 4 4 3 3 1 2 3 5 4 4 6 7 6 7 6 6 6 6 6 6 6 5 5 5 4 4 4 5 4 3 2 1 0 1 2 2 2 2 3 3 3 2 2 2 2 2 3 1
3 2 3 2 2 0 0 2 6 2 5 8 9 9 8 7 7 7 7 7 6 6 5 5 5 4 4 4 5 5 3 2 1 1 2 2 2 2 2 2 3 3 2 2 2 2 2 2 2
4 5 5 4 3 1 3 3 6 4 8 7 7 8 8 8 7 6 5 5 4 5 5 5 5 4 4 4 4 5 5 4 3 2 2 1 1 2 2 2 2 2 2 2 2 2 3 2 2
4 5 3 2 1 4 2 3 8 6 6 7 8 8 8 8 7 6 6 6 6 6 6 6 6 5 4 5 4 4 5 5 4 3 2 2 1 1 1 1 2 2 2 3 3 3 2 2 2
4 6 6 4 4 3 1 5 7 5 3 4 5 6 7 8 8 8 7 7 7 7 7 6 6 5 5 5 4 4 4 3 2 3 2 2 1 1 1 2 2 3 3 3 3 3 2 2 3
5 3 4 5 2 1 4 5 7 1 1 1 3 5 6 8 8 8 7 7 7 7 8 8 7 6 5 5 5 4 4 4 3 3 2 2 1 1 2 2 3 3 3 3 3 3 2 3 3
5 7 4 4 3 2 4 4 4 3 3 2 3 5 6 6 7 7 7 7 7 7 6 6 6 6 5 5 4 4 4 4 4 3 3 2 2 1 2 2 3 3 3 3 3 3 2 3 3
4 4 4 4 4 4 3 7 5 6 5 5 5 5 6 7 8 7 7 7 6 5 5 6 6 5 5 5 4 4 4 4 4 3 3 3 2 2 2 2 3 3 3 3 3 3 3 4 3
4 6 6 4 3 4 3 7 4 3 3 4 4 4 4 5 6 6 6 6 6 6 6 6 6 6 6 5 5 5 4 4 4 3 3 3 3 2 2 3 3 3 3 3 3 3 3 3 3
Wind_Direction
87 97 90 65 57 53 52 313 349 79 66 47 68 78 89 78 89 121 75 120 120 121 124 130 127 123 120 116 112 109 106 106 105 104 103 104 104 103 99 97 94 91 89 89 87 82 78 77 75
121 110 64 64 84 80 324 319 70 74 126 123 70 65 72 66 60 88 109 123 121 122 121 129 129 125 121 118 115 112 110 110 108 104 103 102 101 102 101 99 96 92 89 87 84 79 76 75 75
124 75 85 76 98 153 170 140 114 86 97 92 79 58 68 69 75 93 138 130 117 114 116 132 131 127 124 120 119 116 112 110 108 105 104 101 101 100 98 97 95 90 87 83 80 76 72 73 74
95 54 60 77 113 205 181 165 133 111 72 57 92 77 65 46 88 117 119 120 115 111 113 130 132 130 126 123 121 117 112 110 109 107 106 102 102 99 96 93 92 89 86 81 76 72 69 70 72
65 79 68 66 77 353 135 151 127 98 71 60 82 87 56 13 82 104 103 110 116 114 112 128 133 130 128 127 124 121 118 115 113 109 106 102 101 99 96 92 89 86 83 80 71 65 64 66 69
62 66 85 106 57 21 40 77 102 96 95 85 82 90 64 63 87 100 96 99 105 112 109 119 137 136 133 130 126 122 118 117 115 112 107 103 100 98 97 92 85 80 76 74 68 62 61 62 65
104 95 117 138 105 50 57 62 87 100 94 88 98 97 94 89 88 95 88 87 85 88 89 84 95 121 128 129 127 123 118 116 114 110 106 100 97 96 93 88 83 76 72 69 66 61 60 61 63
116 100 86 108 123 89 51 77 76 82 88 72 77 123 148 156 112 92 81 76 74 70 74 74 67 63 63 87 122 121 115 111 104 101 97 87 75 73 75 74 74 71 69 66 64 61 60 60 66
83 78 111 179 162 149 94 93 69 69 87 64 52 96 131 128 114 101 88 71 70 67 57 67 65 64 61 62 96 96 96 83 75 72 73 67 48 41 44 51 60 60 60 60 60 61 60 60 62
76 102 186 205 162 133 91 94 117 98 79 74 79 86 114 123 122 120 120 116 101 81 54 70 77 73 58 59 67 62 64 54 49 52 53 53 51 36 45 35 41 41 45 46 52 58 58 58 52
98 130 98 46 93 110 97 85 88 115 104 161 149 141 136 132 130 131 132 133 139 143 110 98 95 87 77 61 65 58 53 49 45 52 58 62 57 41 41 35 24 24 35 35 40 45 47 56 62
97 61 97 77 76 82 99 101 84 96 142 141 140 143 141 143 145 146 147 141 116 110 118 112 109 98 89 81 71 68 59 47 47 43 63 83 74 54 43 41 25 27 30 38 41 46 50 58 61
70 48 59 84 84 85 83 80 90 61 85 109 124 133 142 150 149 150 147 138 122 123 125 122 128 117 99 88 74 78 70 60 59 57 62 94 97 88 64 52 48 41 45 52 51 55 59 63 61
107 86 69 62 72 75 90 72 79 77 115 122 136 148 153 158 158 153 151 146 150 159 165 132 120 127 111 97 84 69 71 77 75 73 79 98 106 107 88 70 59 50 53 60 68 66 66 63 62
90 81 48 28 57 83 90 50 63 151 136 137 146 157 159 165 168 172 172 165 169 169 165 156 139 115 108 95 86 88 83 81 80 77 74 90 100 104 101 90 68 54 67 74 72 67 63 66 64
65 70 52 311 97 105 108 172 255 157 148 151 156 164 171 183 193 189 173 166 165 155 158 164 152 126 112 100 89 77 72 72 68 71 71 84 98 106 102 96 80 74 78 78 79 71 70 61 58
51 112 176 290 170 125 129 190 245 166 159 169 177 182 187 199 207 196 177 169 163 164 161 152 139 128 119 105 90 74 66 65 62 64 71 74 83 97 99 94 85 82 77 71 82 69 81 78 66
184 168 180 214 224 131 142 207 229 186 178 190 194 196 201 212 215 196 178 165 155 156 155 147 134 121 115 102 87 71 61 52 49 55 72 83 84 89 93 89 83 84 81 69 73 79 68 73 72
152 148 174 235 200 145 185 212 225 203 197 207 205 204 207 222 218 183 170 156 147 149 151 150 142 141 128 112 104 95 75 43 39 44 70 85 89 90 90 92 84 83 90 96 99 93 79 56 50
137 143 179 293 175 150 190 246 234 207 207 206 206 208 208 210 200 182 170 162 167 168 165 154 158 155 151 132 122 120 113 85 59 41 57 66 84 91 100 97 94 91 97 91 90 99 95 54 39
170 178 188 181 79 55 106 298 250 235 222 217 210 207 206 203 200 195 182 178 172 178 177 172 168 158 154 141 114 90 66 53 45 36 36 34 72 83 92 99 100 99 105 111 107 113 114 110 41
208 207 180 162 137 247 165 269 268 226 228 226 220 208 206 204 196 192 186 185 184 187 176 166 163 155 150 146 139 136 130 122 129 97 66 48 61 78 87 97 97 97 95 106 116 106 111 121 106
187 133 128 143 141 68 204 216 281 216 231 234 222 211 207 199 192 192 195 193 188 175 166 161 153 147 146 144 146 138 130 127 108 80 75 57 46 58 76 89 94 95 93 98 88 89 96 111 130
120 77 59 54 74 271 224 190 273 228 219 222 215 209 203 195 191 194 191 175 169 158 155 154 151 151 148 143 140 144 145 141 130 110 97 68 48 44 59 79 84 94 97 97 96 98 98 97 104
99 96 53 11 359 256 232 206 251 246 223 212 211 207 198 187 183 182 179 175 170 162 162 160 158 160 157 149 152 156 153 151 153 149 143 131 99 62 62 93 98 93 96 100 99 96 90 95 101
162 144 157 191 219 272 261 237 257 260 241 213 203 193 183 180 181 184 187 181 176 172 168 165 167 168 163 158 158 156 152 147 150 150 144 148 156 168 143 116 108 100 98 96 94 89 85 86 91
143 173 163 133 152 248 266 277 298 296 334 156 170 168 182 186 184 184 183 180 176 176 178 175 173 169 169 167 157 156 157 153 152 147 139 139 136 137 120 113 109 104 100 98 98 87 82 87 83
142 144 110 124 148 259 289 272 255 263 240 194 182 184 187 180 179 178 179 181 181 180 176 172 171 171 169 165 167 163 161 156 151 144 145 143 135 114 116 108 107 103 97 98 98 92 87 88 78
124 122 120 128 154 161 264 273 236 225 209 196 200 196 187 181 180 180 183 180 173 165 166 169 169 164 165 169 166 152 153 149 148 149 153 149 136 136 130 124 115 110 103 101 102 99 97 94 81
159 162 148 152 200 174 187 268 285 236 205 192 198 194 189 184 179 175 171 162 158 167 174 173 170 169 171 165 153 152 147 142 148 152 150 140 136 136 132 126 119 116 113 111 116 119 108 106 99